SPACEBEE-93 (48939 NORAD) Tracking and Keplerian Element Data

This shows tracking and keplerian element data for the satellite.

Feedback or suggestion? Click here.




ElementValue
Catalog48939
NameSPACEBEE-93
Epoch Orbit1290
Epoch Day262.07648979
Epoch Year2021
RAAN29.8247
Inclination97.5178
Eccentricity0.0016768
Argument of Perigee324.1808
Mean Anonmoly35.8298
Mean Motion15.14609212
Decay Rate3.886E-05
L11 48939U 21059BN 21262.07648979 .00003886 00000-0 21340-3 0 9991
L22 48939 97.5178 29.8247 0016768 324.1808 35.8298 15.14609212 12906

Live tracking and technical data element details for SPACEBEE-93 (NORAD 48939). SPACEBEE-93 can be tracked NOW for your location showing map with azimuth and elevation plus other details from your city location.

Track the satellite on the map from your city or location and see movement details for azimuth, elevation, latitude, longitude, range, height, and movement on the map or in text.







IsCatalogInMostPopularTable: catalog: 48939, numindb: 13
Update: records affected: 1



GetName: 48939 SPACEBEE-93

Hit Count: updated at: Fri, 24 Sep 2021 17:55:30 GMT